This demonstration page uses our WeatherBlox Daily Observations layout. Learn more.

Left ArrowRight Arrow

Hourly Observations for July 10, 2015

Temp ( °F °C ) Dew Point ( °F °C ) Humidity (%) Winds ( mph kmh ) Pressure ( in mb ) Visibility ( mi km ) Precip ( " mm )
12:09 am 00:09 Mostly Cloudy with Mist and Fog 66 18.9 65 18.3 96 96 N N/A 30.06 1018 5 8 N/A
12:53 am 00:53 Cloudy with Mist and Fog 67 19.4 65 18.3 93 93 N N/A 30.08 1019 6 10 N/A
1:53 am 01:53 Cloudy with Mist and Fog 67 19.4 66 18.9 97 97 N N/A 30.08 1019 5 8 N/A
2:11 am 02:11 Partly Cloudy with Mist and Fog 66 18.9 65 18.3 96 96 N N/A 30.06 1018 5 8 N/A
2:20 am 02:20 Mostly Cloudy with Mist and Fog 66 18.9 64 17.8 93 93 N N/A 30.06 1018 4 6 N/A
2:27 am 02:27 Partly Cloudy with Mist and Fog 65 18.3 64 17.8 97 97 N N/A 30.06 1018 4 6 N/A
2:53 am 02:53 Clear with Mist and Fog 64 17.8 63 17.2 96 96 N N/A 30.07 1018 3 5 N/A
3:53 am 03:53 Mostly Cloudy with Mist and Fog 65 18.3 64 17.8 97 97 N N/A 30.07 1018 4 6 N/A
4:53 am 04:53 Cloudy with Mist and Fog 66 18.9 65 18.3 96 96 N N/A 30.07 1018 4 6 N/A
5:30 am 05:30 Mostly Cloudy with Mist and Fog 66 18.9 65 18.3 96 96 N N/A 30.06 1018 4 6 N/A
5:53 am 05:53 Cloudy with Mist and Fog 67 19.4 65 18.3 93 93 N N/A 30.09 1019 4 6 N/A
6:20 am 06:20 Cloudy with Mist and Fog 67 19.4 65 18.3 93 93 N N/A 30.09 1019 4 6 N/A
6:38 am 06:38 Cloudy with Mist and Fog 67 19.4 65 18.3 93 93 N N/A 30.09 1019 4 6 N/A
6:53 am 06:53 Cloudy with Mist and Fog 67 19.4 65 18.3 93 93 N N/A 30.11 1020 4 6 N/A
7:53 am 07:53 Partly Cloudy with Mist and Fog 68 20 66 18.9 93 93 N N/A 30.11 1020 4 6 N/A
8:29 am 08:29 Hazy 71 21.7 66 18.9 84 84 NNW 3 6 30.09 1019 6 10 N/A
8:53 am 08:53 Partly Cloudy 71 21.7 66 18.9 84 84 N N/A 30.12 1020 8 13 N/A
9:23 am 09:23 Mostly Cloudy 72 22.2 65 18.3 79 79 VRB 5 7 30.12 1020 10 16 N/A
9:39 am 09:39 Cloudy 71 21.7 65 18.3 81 81 NNW 3 6 30.12 1020 10 16 N/A
9:53 am 09:53 Cloudy 71 21.7 65 18.3 81 81 SW 3 6 30.13 1020 10 16 N/A
10:20 am 10:20 Mostly Cloudy 73 22.8 65 18.3 76 76 VRB 3 6 30.12 1020 10 16 N/A
10:48 am 10:48 Mostly Cloudy 73 23 64 18 74 74 N N/A 30.12 1020 10 16 N/A
10:53 am 10:53 Mostly Cloudy 74 23.3 66 18.9 76 76 N N/A 30.13 1020 10 16 N/A
11:41 am 11:41 Mostly Cloudy 74 23.3 64 17.8 71 71 N N/A 30.12 1020 10 16 N/A
11:53 am 11:53 Mostly Cloudy 74 23.3 64 17.8 71 71 WNW 3 6 30.14 1021 10 16 N/A
12:22 pm 12:22 Mostly Cloudy 74 23.3 64 17.8 71 71 W 5 7 30.12 1020 10 16 N/A
12:33 pm 12:33 Mostly Cloudy with Light Rain 73 22.8 65 18.3 76 76 N N/A 30.12 1020 9 14 N/A
12:53 pm 12:53 Cloudy with Light Rain 73 22.8 65 18.3 76 76 VRB 3 6 30.13 1020 8 13 N/A
1:53 pm 13:53 Partly Cloudy 74 23.3 61 16.1 64 64 N N/A 30.11 1020 10 16 0.01 0.25
2:53 pm 14:53 Cloudy 73 22.8 65 18.3 76 76 NNW 5 7 30.10 1019 10 16 N/A
3:46 pm 15:46 Cloudy with Rain 68 20 64 17.8 87 87 NNW 5 7 30.09 1019 3 4 0.03 0.76
3:53 pm 15:53 Cloudy with Light Rain 67 19.4 64 17.8 91 91 NNW 5 7 30.12 1020 2 3 0.03 0.76
4:16 pm 16:16 Cloudy with Rain 67 19.4 63 17.2 87 87 N N/A 30.09 1019 3 5 0.03 0.76
4:47 pm 16:47 Cloudy with Heavy Rain 66 19 64 18 94 94 N N/A 30.09 1019 2 3 0.08 2.03
4:53 pm 16:53 Cloudy with Rain 67 19.4 65 18.3 93 93 S 3 6 30.11 1020 2 2 0.09 2.29
4:55 pm 16:55 Cloudy with Light Rain 67 19.4 65 18.3 93 93 S 3 6 30.09 1019 2 3 N/A
5:03 pm 17:03 Cloudy with Light Rain 67 19.4 65 18.3 93 93 N N/A 30.09 1019 6 10 N/A
5:27 pm 17:27 Cloudy with Light Rain 67 19.4 65 18.3 93 93 N N/A 30.09 1019 2 3 0.02 0.51
5:39 pm 17:39 Cloudy with Light Rain 67 19.4 65 18.3 93 93 N N/A 30.09 1019 5 8 0.03 0.76
5:53 pm 17:53 Cloudy with Light Rain 67 19.4 66 18.9 97 97 N N/A 30.10 1019 3 4 0.04 1.02
6:10 pm 18:10 Cloudy with Light Rain 68 20 66 18.9 93 93 ESE 3 6 30.09 1019 6 10 0.01 0.25
6:17 pm 18:17 Cloudy 68 20 66 18.9 93 93 N N/A 30.09 1019 9 14 0.01 0.25
6:32 pm 18:32 Mostly Cloudy 69 20.6 66 18.9 90 90 N N/A 30.06 1018 10 16 0.01 0.25
6:53 pm 18:53 Mostly Cloudy 69 20.6 65 18.3 87 87 N N/A 30.09 1019 10 16 0.01 0.25
7:53 pm 19:53 Partly Cloudy with Light Rain 70 21.1 67 19.4 90 90 N N/A 30.09 1019 10 16 N/A
8:53 pm 20:53 Partly Cloudy 69 20.6 66 18.9 90 90 N N/A 30.10 1019 8 13 N/A
9:29 pm 21:29 Clear with Mist and Fog 66 18.9 65 18.3 96 96 N N/A 30.09 1019 3 4 N/A
9:37 pm 21:37 Clear with Mist and Fog 65 18.3 64 17.8 97 97 N N/A 30.09 1019 4 6 N/A
9:53 pm 21:53 Clear with Mist and Fog 65 18.3 64 17.8 97 97 N N/A 30.11 1020 1 2 N/A
10:04 pm 22:04 Clear with Mist and Fog 65 18.3 64 17.8 97 97 N N/A 30.09 1019 3 5 N/A
10:53 pm 22:53 Clear with Mist and Fog 64 17.8 63 17.2 96 96 N N/A 30.13 1020 4 6 N/A
11:15 pm 23:15 Clear with Mist and Fog 64 17.8 63 17.2 96 96 N N/A 30.12 1020 2 3 N/A
11:20 pm 23:20 Clear with Mist and Fog 65 18.3 64 17.8 97 97 N N/A 30.12 1020 1 1 N/A
11:37 pm 23:37 Clear with Mist and Fog 64 17.8 63 17.2 96 96 N N/A 30.12 1020 2 3 N/A
11:46 pm 23:46 Clear with Mist and Fog 64 17.8 63 17.2 96 96 N N/A 30.12 1020 2 2 N/A
11:50 pm 23:50 Mostly Clear with Mist and Fog 64 18 63 17 94 94 N N/A 30.12 1020 2 3 N/A
11:53 pm 23:53 Mostly Clear with Mist and Fog 63 17.2 63 17.2 100 100 N N/A 30.13 1020 2 3 N/A
11:56 pm 23:56 Mostly Cloudy with Mist and Fog 63 17.2 63 17.2 100 100 N N/A 30.12 1020 1 2 N/A

Powered by AerisWeather